FW7233 Weather Reports


time (UTC)temp
F
wind
direction
speed
knots
gust
knots
rain 1hr
in
rain 24hr
in
rain mn
in
humidity
%
barometer
mb
20260905183007 56 249 3.5 11.3 0.01 0.38 0.24 95 1016.9
20260905182007 56 200 1.7 12.2 0.00 0.38 0.23 95 1016.8
20260905181005 56 131 0.9 8.7 0.03 0.38 0.23 98 1016.7
20260905180007 55 144 0.0 0.0 0.03 0.35 0.23 98 1016.0
20260905175005 56 151 0.0 2.6 0.03 0.35 0.23 98 1016.0
20260905174006 56 251 0.9 3.5 0.03 0.35 0.23 97 1016.1
20260905173007 56 131 0.9 6.1 0.03 0.35 0.23 97 1016.4
20260905172005 56 173 0.9 7.0 0.03 0.35 0.22 97 1016.3
20260905171005 56 248 1.7 6.1 0.01 0.35 0.20 98 1016.4
20260905170012 56 149 0.9 0.9 0.04 0.31 0.20 98 1015.6
20260905165007 56 142 0.0 0.9 0.07 0.31 0.20 98 1015.7
20260905164008 57 157 0.0 0.9 0.07 0.31 0.20 98 1015.4
20260905163008 57 144 0.0 0.0 0.07 0.31 0.20 97 1015.7
20260905161007 58 159 0.0 7.8 0.06 0.31 0.19 96 1016.1
20260905155005 60 164 0.9 0.9 0.00 0.28 0.13 96 1015.3
20260905154007 61 151 0.0 0.9 0.00 0.28 0.13 95 1015.0
20260905153007 61 148 0.0 1.7 0.00 0.28 0.13 95 1014.8
20260905145005 63 162 0.9 0.9 0.12 0.24 0.13 86 1015.0
20260905144007 64 141 0.0 1.7 0.12 0.24 0.13 83 1015.1
20260905142005 60 153 0.0 1.7 0.12 0.24 0.13 92 1015.0
20260905141005 58 78 0.9 2.6 0.12 0.24 0.13 93 1015.2
20260905140007 61 71 0.9 8.7 0.08 0.16 0.07 86 1015.6
20260905135005 66 174 2.6 9.6 0.00 0.16 0.01 73 1015.0
20260905134004 68 192 3.5 9.6 0.00 0.16 0.01 61 1014.4
20260905133005 71 253 1.7 8.7 0.00 0.16 0.01 61 1014.6
20260905132019 70 281 4.3 12.2 0.00 0.16 0.01 61 1014.5
20260905125007 70 133 0.0 13.0 0.00 0.16 0.01 62 1014.8
20260905123005 70 205 1.7 11.3 0.00 0.16 0.01 58 1014.6
20260905122006 68 6 0.9 7.8 0.00 0.16 0.01 62 1014.6
20260905121005 69 126 0.9 9.6 0.00 0.16 0.01 63 1014.7
20260905115007 67 197 4.3 8.7 0.00 0.16 0.01 63 1015.0
20260905113005 66 308 5.2 11.3 0.00 0.16 0.01 65 1014.8
20260905111005 68 262 2.6 9.6 0.00 0.16 0.01 65 1015.0
20260905110008 67 240 5.2 11.3 0.00 0.16 0.01 65 1014.8
20260905105006 66 207 4.3 15.6 0.00 0.16 0.01 63 1014.8
20260905104007 67 188 1.7 12.2 0.00 0.16 0.01 67 1014.4
20260905103008 69 181 0.9 11.3 0.00 0.16 0.01 64 1014.6
20260905102005 68 262 3.5 15.6 0.00 0.16 0.01 63 1014.4
20260905101005 67 205 3.5 12.2 0.00 0.16 0.01 68 1014.4
20260905095005 67 92 1.7 9.6 0.00 0.16 0.01 67 1014.2
20260905094005 67 344 1.7 7.8 0.00 0.16 0.01 72 1014.2
20260905091005 65 113 0.9 7.8 0.00 0.16 0.01 76 1014.2
20260905090007 66 197 3.5 13.0 0.00 0.16 0.01 73 1013.9
20260905085007 65 172 3.5 12.2 0.00 0.16 0.01 76 1014.1
20260905084005 65 61 1.7 9.6 0.00 0.16 0.01 76 1013.9
20260905081006 65 306 3.5 11.3 0.00 0.16 0.01 76 1013.9
20260905080006 64 299 0.9 7.8 0.00 0.16 0.01 78 1013.9
20260905075006 63 261 5.2 12.2 0.00 0.16 0.01 80 1013.8
20260905073020 63 197 3.5 11.3 0.00 0.16 0.01 83 1013.4
20260905072005 63 337 2.6 8.7 0.00 0.16 0.01 82 1013.2
20260905071006 62 228 5.2 8.7 0.00 0.16 0.01 84 1013.2
20260905070007 62 342 1.7 8.7 0.00 0.16 0.01 85 1013.2
20260905065007 61 341 2.6 12.2 0.00 0.16 0.01 86 1013.1
20260905064006 61 186 5.2 12.2 0.00 0.16 0.01 86 1013.0
20260905063008 61 117 7.8 14.8 0.00 0.16 0.01 85 1012.8
20260905062005 61 272 4.3 12.2 0.00 0.16 0.01 87 1012.8
20260905061005 61 276 8.7 11.3 0.00 0.16 0.01 87 1012.6
20260905060022 61 219 1.7 9.6 0.00 0.16 0.01 88 1012.5
20260905055007 61 89 1.7 9.6 0.00 0.16 0.01 88 1012.6
20260905054007 61 219 6.1 8.7 0.00 0.16 0.01 88 1012.4
20260905053005 61 219 1.7 8.7 0.00 0.16 0.01 90 1012.3
20260905052006 60 263 0.9 5.2 0.00 0.16 0.01 91 1012.2
20260905051006 61 201 3.5 7.0 0.00 0.16 0.01 89 1012.1
20260905050006 61 238 7.8 9.6 0.00 0.16 0.01 90 1011.9
20260905043006 61 215 1.7 8.7 0.00 0.16 0.01 89 1011.6
20260905042006 61 177 2.6 11.3 0.00 0.16 0.01 90 1011.4
20260905040005 61 251 1.7 13.0 0.00 0.16 0.01 90 1011.2
20260905034005 61 334 2.6 12.2 0.00 0.16 0.01 91 1010.8
20260905033007 61 213 5.2 7.8 0.00 0.16 0.01 91 1010.8
20260905032006 61 348 0.9 7.8 0.00 0.16 0.01 91 1010.7
20260905031005 61 158 1.7 7.0 0.00 0.16 0.01 91 1010.5
20260905030006 61 195 3.5 8.7 0.00 0.16 0.01 91 1010.4
20260905025007 61 195 4.3 7.8 0.00 0.16 0.01 91 1010.1
20260905024005 61 205 2.6 11.3 0.00 0.16 0.01 91 1010.2
20260905021005 61 209 6.1 12.2 0.00 0.16 0.01 92 1009.9
20260905015006 61 187 4.3 7.0 0.00 0.16 0.01 93 1010.2
20260905013007 61 110 1.7 13.0 0.00 0.16 0.01 93 1009.9
20260905012008 62 268 2.6 7.8 0.00 0.16 0.01 93 1009.7
20260905011007 62 271 1.7 7.0 0.00 0.16 0.01 93 1009.7
20260905010005 62 260 3.5 6.1 0.00 0.16 0.01 93 1009.2
20260905005008 62 181 4.3 9.6 0.00 0.16 0.01 93 1009.4
20260905004007 62 280 1.7 9.6 0.00 0.16 0.01 93 1009.6
20260905003007 62 253 7.8 11.3 0.00 0.16 0.01 93 1009.5
20260905002007 62 254 1.7 9.6 0.00 0.16 0.01 93 1009.0
20260905001005 62 138 1.7 9.6 0.00 0.16 0.01 93 1008.6
20260905000014 62 152 0.9 13.0 0.00 0.16 0.01 93 1008.8
20260904235005 62 153 3.5 8.7 0.00 0.16 0.01 93 1008.8
20260904234019 62 150 0.9 8.7 0.00 0.16 0.01 92 1008.2
20260904233018 62 278 3.5 11.3 0.01 0.16 0.01 92 1008.1
20260904232006 62 165 1.7 12.2 0.01 0.16 0.01 92 1008.3
20260904230011 62 37 1.7 7.0 0.01 0.15 0.01 93 1008.1
20260904225007 63 178 0.0 9.6 0.01 0.15 0.01 94 1007.7
20260904224005 63 199 5.2 7.8 0.01 0.15 0.00 96 1007.5
20260904222952 64 113 0.0 9.6 0.00 0.15 0.00 97 1007.5
20260904221955 64 296 0.9 7.0 0.00 0.15 0.00 98 1007.5
20260904220952 64 149 1.7 5.2 0.00 0.15 0.00 99 1007.1
20260904214953 64 239 4.3 8.7 0.00 0.15 0.15 99 1006.8
20260904213953 64 183 1.7 6.1 0.00 0.15 0.15 99 1006.9
20260904212954 63 156 0.9 7.0 0.00 0.15 0.15 99 1006.7
20260904211953 63 220 3.5 5.2 0.00 0.15 0.15 99 1006.4
20260904210953 63 217 0.0 5.2 0.00 0.15 0.15 99 1007.1
20260904205953 63 158 0.0 3.5 0.00 0.15 0.15 99 1007.5
20260904204957 63 119 0.0 2.6 0.00 0.15 0.15 99 1006.6
20260904203953 63 222 0.9 6.1 0.00 0.15 0.15 98 1007.0
20260904202955 63 135 0.9 2.6 0.01 0.15 0.15 98 1007.0
20260904201952 63 174 1.7 3.5 0.03 0.15 0.15 98 1007.1
20260904195954 64 46 1.7 6.1 0.15 0.00 0.15 98 1007.4
20260904194955 65 168 0.0 7.8 0.15 0.00 0.15 98 1007.1
20260904193953 66 296 2.6 11.3 0.15 0.00 0.15 97 1007.6
20260904192953 67 40 2.6 7.8 0.14 0.00 0.14 97 1007.2
20260904191955 68 170 1.7 13.9 0.12 0.00 0.12 95 1006.9
20260904185953 73 180 0.9 5.2 0.00 0.00 0.00 79 1005.3
20260904184953 74 122 0.9 7.0 0.00 0.00 0.00 74 1005.2